Change the Weather History Date:

Wednesday, April 3, 2013

  Actual Average (KHFF) Record (KHFF)
Temperature  
Mean Temperature 54 °F -  
Max Temperature 62 °F 67 °F 86 °F (2002)
Min Temperature 47 °F 47 °F 31 °F (2011)
Degree Days  
Heating Degree Days 10    
Growing Degree Days 4 (Base 50)    
Moisture  
Dew Point 28 °F    
Average Humidity 38    
Maximum Humidity 73    
Minimum Humidity 24    
Precipitation  
Precipitation 0.00 in - - ()
Sea Level Pressure  
Sea Level Pressure 30.21 in    
Wind  
Wind Speed 4 mph (NNE)    
Max Wind Speed 12 mph    
Max Gust Speed 18 mph    
Visibility 10 miles    
Events      
Averages and records for this station are not official NWS values.
T = Trace of Precipitation, MM = Missing Value Source: NWS Daily Summary

Daily Weather History Graph

Daily Weather History Graph

Search for Another Location

Airport or City:

Trip Planner

Search our weather history database for the weather conditions in past years. The results will help you decide how hot, cold, wet, or windy it might be!

Date:

Astronomy

Apr. 03, 2013 Rise Set
Actual Time 7:02 AM EDT 7:42 PM EDT
Civil Twilight 6:37 AM EDT 8:07 PM EDT
Nautical Twilight 6:07 AM EDT 8:37 PM EDT
Astronomical Twilight 5:36 AM EDT 9:08 PM EDT
Moon 2:27 AM EDT (4/3) 1:06 PM EDT (4/3)
Length of Visible Light 13h 30m
Length of Day
12h 39m
Last Quarter, 45% of the Moon is Illuminated
Apr 3
Last Quarter
Apr 10
New
Apr 18
First Quarter
Apr 25
Full
May 2
Last Quarter

Hourly Weather History & Observations

Time (EDT) Temp. Dew Point Humidity Pressure Visibility Wind Dir Wind Speed Gust Speed Precip Events Conditions
12:15 AM 52.0 °F 39.6 °F 63% 30.12 in 10.0 mi Calm Calm - N/A   Mostly Cloudy
12:35 AM 52.0 °F 40.6 °F 65% 30.13 in 10.0 mi Calm Calm - N/A   Mostly Cloudy
12:55 AM 51.6 °F 41.4 °F 68% 30.13 in 10.0 mi Calm Calm - N/A   Overcast
1:15 AM 51.3 °F 40.8 °F 67% 30.13 in 10.0 mi Calm Calm - N/A   Overcast
1:35 AM 50.9 °F 41.7 °F 71% 30.15 in 10.0 mi North 4.6 mph - N/A   Overcast
1:55 AM 51.3 °F 41.7 °F 70% 30.15 in 10.0 mi Calm Calm - N/A   Overcast
2:15 AM 50.7 °F 42.3 °F 73% 30.15 in 10.0 mi Calm Calm - N/A   Overcast
2:35 AM 50.4 °F 41.5 °F 72% 30.15 in 10.0 mi NE 3.5 mph - N/A   Overcast
2:55 AM 51.1 °F 35.2 °F 55% 30.15 in 10.0 mi NNE 4.6 mph - N/A   Overcast
3:15 AM 51.1 °F 32.2 °F 48% 30.14 in 10.0 mi NNE 4.6 mph - N/A   Light Drizzle
3:35 AM 51.3 °F 28.8 °F 42% 30.13 in 10.0 mi NNE 10.4 mph 16.1 mph N/A   Overcast
3:55 AM 50.9 °F 27.7 °F 41% 30.13 in 10.0 mi NNE 9.2 mph 17.3 mph N/A   Overcast
4:15 AM 50.5 °F 26.4 °F 39% 30.12 in 10.0 mi NNE 8.1 mph - N/A   Overcast
4:35 AM 50.2 °F 25.0 °F 37% 30.12 in 10.0 mi NE 5.8 mph - N/A   Overcast
4:55 AM 49.8 °F 24.3 °F 37% 30.15 in 10.0 mi NNE 10.4 mph 16.1 mph N/A   Overcast
5:15 AM 49.3 °F 24.3 °F 38% 30.15 in 10.0 mi NNE 6.9 mph - N/A   Overcast
5:35 AM 49.1 °F 23.0 °F 36% 30.16 in 10.0 mi NNE 8.1 mph 18.4 mph N/A   Overcast
5:55 AM 48.7 °F 22.6 °F 36% 30.17 in 10.0 mi NE 8.1 mph - N/A   Overcast
6:15 AM 48.4 °F 22.5 °F 36% 30.17 in 10.0 mi NNE 8.1 mph - N/A   Overcast
6:35 AM 48.0 °F 22.1 °F 36% 30.18 in 10.0 mi NNE 8.1 mph - N/A   Overcast
6:55 AM 47.7 °F 21.7 °F 36% 30.20 in 10.0 mi NE 3.5 mph - N/A   Overcast
7:15 AM 47.5 °F 21.9 °F 36% 30.20 in 10.0 mi NNE 8.1 mph - N/A   Overcast
7:35 AM 47.5 °F 21.6 °F 36% 30.21 in 10.0 mi NNE 8.1 mph - N/A   Overcast
7:55 AM 47.5 °F 21.4 °F 36% 30.23 in 10.0 mi NNE 6.9 mph - N/A   Overcast
8:15 AM 47.7 °F 20.1 °F 34% 30.24 in 10.0 mi NNE 6.9 mph - N/A   Overcast
8:35 AM 47.7 °F 19.0 °F 32% 30.26 in 10.0 mi NNE 10.4 mph - N/A   Overcast
8:55 AM 48.0 °F 19.2 °F 32% 30.26 in 10.0 mi NNE 6.9 mph - N/A   Overcast
9:15 AM 48.2 °F 18.1 °F 30% 30.27 in 10.0 mi NNE 8.1 mph - N/A   Overcast
9:35 AM 48.2 °F 18.5 °F 31% 30.27 in 10.0 mi NE 9.2 mph - N/A   Overcast
9:55 AM 48.9 °F 19.2 °F 31% 30.26 in 10.0 mi NNE 10.4 mph - N/A   Overcast
10:15 AM 49.8 °F 19.6 °F 30% 30.26 in 10.0 mi NE 11.5 mph 18.4 mph N/A   Overcast
10:35 AM 51.8 °F 19.8 °F 28% 30.26 in 10.0 mi NE 8.1 mph - N/A   Mostly Cloudy
10:55 AM 52.5 °F 20.1 °F 28% 30.27 in 10.0 mi NE 9.2 mph - N/A   Overcast
11:15 AM 53.6 °F 20.5 °F 27% 30.27 in 10.0 mi NE 8.1 mph - N/A   Overcast
11:35 AM 54.1 °F 20.5 °F 27% 30.26 in 10.0 mi North 6.9 mph - N/A   Overcast
11:55 AM 54.3 °F 19.6 °F 26% 30.26 in 10.0 mi NE 3.5 mph - N/A   Overcast
12:15 PM 55.9 °F 20.7 °F 25% 30.27 in 10.0 mi NNE 6.9 mph - N/A   Overcast
12:35 PM 56.8 °F 21.0 °F 25% 30.25 in 10.0 mi NE 9.2 mph - N/A   Scattered Clouds
12:55 PM 57.2 °F 21.2 °F 25% 30.24 in 10.0 mi NW 4.6 mph - N/A   Clear
1:15 PM 57.7 °F 21.9 °F 25% 30.23 in 10.0 mi NE 3.5 mph - N/A   Clear
1:35 PM 58.6 °F 22.6 °F 25% 30.23 in 10.0 mi NW 9.2 mph - N/A   Clear
1:55 PM 59.4 °F 22.6 °F 24% 30.23 in 10.0 mi East 3.5 mph - N/A   Clear
2:15 PM 60.3 °F 23.7 °F 25% 30.22 in 10.0 mi North 4.6 mph - N/A   Clear
2:35 PM 60.4 °F 24.4 °F 25% 30.21 in 10.0 mi Calm Calm - N/A   Clear
2:55 PM 60.8 °F 25.0 °F 25% 30.20 in 10.0 mi NW 4.6 mph - N/A   Clear
3:15 PM 61.5 °F 26.1 °F 26% 30.19 in 10.0 mi NNE 4.6 mph - N/A   Clear
3:35 PM 61.3 °F 25.2 °F 25% 30.19 in 10.0 mi North 4.6 mph - N/A   Clear
3:55 PM 61.7 °F 25.3 °F 25% 30.19 in 10.0 mi Calm Calm - N/A   Clear
4:15 PM 61.9 °F 26.1 °F 26% 30.18 in 10.0 mi NW 3.5 mph - N/A   Clear
4:35 PM 62.2 °F 26.2 °F 25% 30.18 in 10.0 mi NNW 4.6 mph - N/A   Clear
4:55 PM 62.8 °F 26.6 °F 25% 30.19 in 10.0 mi Calm Calm - N/A   Clear
5:15 PM 62.6 °F 27.5 °F 26% 30.20 in 10.0 mi WNW 5.8 mph - N/A   Clear
5:35 PM 62.6 °F 27.9 °F 27% 30.20 in 10.0 mi Calm Calm - N/A   Clear
5:55 PM 61.7 °F 28.2 °F 28% 30.20 in 10.0 mi NW 6.9 mph - N/A   Clear
6:15 PM 61.0 °F 28.0 °F 29% 30.20 in 10.0 mi NW 5.8 mph - N/A   Clear
6:35 PM 60.4 °F 27.5 °F 29% 30.19 in 10.0 mi NW 5.8 mph - N/A   Clear
6:55 PM 59.9 °F 27.7 °F 29% 30.20 in 10.0 mi NW 4.6 mph - N/A   Clear
7:15 PM 59.4 °F 28.4 °F 31% 30.20 in 10.0 mi Calm Calm - N/A   Clear
7:35 PM 57.6 °F 30.6 °F 36% 30.21 in 10.0 mi Calm Calm - N/A   Clear
7:55 PM 56.3 °F 31.5 °F 39% 30.22 in 10.0 mi Calm Calm - N/A   Clear
8:15 PM 56.3 °F 30.4 °F 37% 30.22 in 10.0 mi Calm Calm - N/A   Clear
8:35 PM 55.9 °F 30.2 °F 37% 30.23 in 10.0 mi Calm Calm - N/A   Clear
8:55 PM 55.4 °F 31.1 °F 40% 30.24 in 10.0 mi Calm Calm - N/A   Clear
9:15 PM 54.7 °F 34.0 °F 46% 30.25 in 10.0 mi Calm Calm - N/A   Clear
9:35 PM 53.1 °F 33.4 °F 47% 30.25 in 10.0 mi Calm Calm - N/A   Clear
9:55 PM 52.5 °F 33.3 °F 48% 30.26 in 10.0 mi Calm Calm - N/A   Clear
10:15 PM 51.8 °F 33.8 °F 50% 30.26 in 10.0 mi Calm Calm - N/A   Clear
10:35 PM 52.0 °F 34.3 °F 51% 30.27 in 10.0 mi Calm Calm - N/A   Clear
10:55 PM 50.9 °F 35.8 °F 56% 30.28 in 10.0 mi Calm Calm - N/A   Clear
11:15 PM 50.7 °F 35.4 °F 56% 30.27 in 10.0 mi ENE 3.5 mph - N/A   Clear
11:35 PM 50.4 °F 34.9 °F 55% 30.27 in 10.0 mi ENE 3.5 mph - N/A   Clear
11:55 PM 49.8 °F 35.6 °F 58% 30.26 in 10.0 mi NE 3.5 mph - N/A   Clear